QPF
0.03 0.02 0.03 0.03 0.03 0.05 0.05 0.04 0.04 0.05 0.05 0.05 0.05 0.05 0.03 0.03 0.08 0.11 0.14 0.14 0.15 0.17 0.15 0.12 0.08 0.05 0.05 0.08 0.10 0.14 0.15 0.08 0.06 0.06 0.08 0.07 0.05 0.06 0.10 0.09 0.07 0.06 0.07
0.03 0.02 0.03 0.02 0.02 0.04 0.06 0.04 0.04 0.03 0.03 0.04 0.04 0.04 0.03 0.03 0.09 0.12 0.11 0.06 0.04 0.08 0.15 0.12 0.07 0.05 0.06 0.08 0.10 0.13 0.14 0.10 0.07 0.06 0.08 0.09 0.07 0.07 0.08 0.09 0.09 0.05 0.06
0.03 0.02 0.02 0.02 0.02 0.03 0.07 0.06 0.04 0.04 0.04 0.04 0.05 0.05 0.05 0.05 0.09 0.15 0.12 0.05 0.03 0.05 0.14 0.12 0.06 0.08 0.09 0.09 0.13 0.12 0.10 0.11 0.12 0.12 0.11 0.07 0.06 0.07 0.07 0.09 0.09 0.06 0.05
0.02 0.01 0.01 0.03 0.02 0.03 0.06 0.05 0.05 0.05 0.05 0.08 0.11 0.08 0.07 0.06 0.09 0.17 0.16 0.06 0.04 0.08 0.14 0.10 0.06 0.07 0.07 0.09 0.14 0.12 0.11 0.12 0.14 0.18 0.14 0.07 0.05 0.07 0.08 0.08 0.06 0.04 0.04
0.03 0.01 0.01 0.03 0.02 0.04 0.08 0.10 0.10 0.09 0.09 0.17 0.17 0.10 0.07 0.06 0.06 0.09 0.13 0.13 0.13 0.15 0.12 0.06 0.04 0.05 0.05 0.07 0.13 0.14 0.13 0.17 0.19 0.17 0.12 0.06 0.06 0.07 0.08 0.08 0.06 0.04 0.04
0.02 0.01 0.01 0.02 0.03 0.06 0.12 0.18 0.19 0.16 0.15 0.18 0.12 0.08 0.06 0.05 0.04 0.04 0.07 0.09 0.11 0.09 0.06 0.05 0.05 0.05 0.05 0.08 0.10 0.10 0.09 0.15 0.20 0.14 0.09 0.06 0.05 0.07 0.10 0.12 0.08 0.04 0.04
0.02 0.01 0.01 0.02 0.03 0.05 0.10 0.16 0.19 0.19 0.18 0.14 0.09 0.06 0.04 0.04 0.03 0.03 0.03 0.05 0.05 0.05 0.04 0.05 0.06 0.04 0.04 0.05 0.07 0.08 0.10 0.14 0.12 0.07 0.06 0.04 0.04 0.05 0.08 0.11 0.09 0.06 0.05
0.01 0.01 0.01 0.03 0.04 0.04 0.05 0.08 0.12 0.10 0.07 0.07 0.07 0.05 0.03 0.02 0.02 0.03 0.03 0.04 0.05 0.04 0.04 0.04 0.04 0.03 0.03 0.05 0.06 0.08 0.10 0.09 0.07 0.06 0.05 0.04 0.04 0.05 0.07 0.08 0.08 0.08 0.06
0.01 0.01 0.01 0.02 0.03 0.05 0.06 0.06 0.07 0.04 0.03 0.03 0.04 0.03 0.03 0.02 0.01 0.02 0.03 0.04 0.04 0.04 0.04 0.04 0.03 0.03 0.04 0.06 0.05 0.05 0.09 0.10 0.09 0.09 0.06 0.05 0.04 0.05 0.07 0.07 0.07 0.08 0.08
0.01 0.01 0.01 0.02 0.02 0.03 0.03 0.06 0.06 0.05 0.04 0.03 0.03 0.03 0.03 0.02 0.03 0.03 0.03 0.05 0.04 0.05 0.04 0.04 0.04 0.05 0.05 0.07 0.07 0.08 0.10 0.14 0.09 0.12 0.11 0.09 0.07 0.06 0.07 0.07 0.06 0.06 0.07
0.02 0.01 0.01 0.02 0.02 0.04 0.04 0.04 0.03 0.04 0.04 0.04 0.04 0.04 0.03 0.01 0.01 0.03 0.03 0.06 0.05 0.06 0.05 0.04 0.06 0.08 0.08 0.08 0.10 0.10 0.11 0.10 0.08 0.13 0.12 0.07 0.06 0.06 0.06 0.06 0.06 0.06 0.07
0.01 0.01 0.01 0.02 0.02 0.04 0.02 0.02 0.02 0.01 0.01 0.02 0.02 0.02 0.02 0.02 0.02 0.03 0.04 0.05 0.05 0.06 0.05 0.04 0.06 0.05 0.04 0.04 0.07 0.09 0.08 0.13 0.13 0.22 0.20 0.08 0.06 0.06 0.06 0.07 0.07 0.07 0.07
0.01 0.01 0.01 0.01 0.01 0.02 0.01 0.02 0.02 0.02 0.01 0.02 0.02 0.02 0.01 0.02 0.03 0.03 0.02 0.03 0.03 0.03 0.03 0.03 0.04 0.03 0.04 0.04 0.04 0.05 0.08 0.14 0.14 0.17 0.17 0.08 0.07 0.06 0.07 0.06 0.06 0.06 0.05
0.00 0.01 0.01 0.01 0.01 0.01 0.01 0.01 0.02 0.02 0.01 0.02 0.03 0.03 0.02 0.04 0.05 0.03 0.03 0.03 0.02 0.02 0.03 0.02 0.03 0.05 0.04 0.04 0.05 0.07 0.12 0.17 0.12 0.11 0.11 0.08 0.07 0.07 0.07 0.06 0.05 0.06 0.04
0.01 0.01 0.01 0.01 0.01 0.01 0.01 0.02 0.02 0.03 0.03 0.02 0.03 0.04 0.04 0.04 0.04 0.03 0.03 0.03 0.02 0.02 0.02 0.03 0.03 0.05 0.06 0.07 0.07 0.11 0.14 0.16 0.10 0.08 0.07 0.06 0.06 0.07 0.08 0.09 0.06 0.05 0.05
0.00 0.01 0.01 0.01 0.01 0.00 0.00 0.01 0.02 0.03 0.03 0.03 0.04 0.05 0.04 0.03 0.02 0.02 0.03 0.02 0.02 0.02 0.03 0.03 0.03 0.05 0.07 0.06 0.06 0.07 0.08 0.09 0.11 0.12 0.10 0.07 0.06 0.07 0.09 0.11 0.09 0.06 0.06
0.02 0.02 0.01 0.01 0.01 0.01 0.01 0.01 0.02 0.02 0.02 0.03 0.03 0.04 0.04 0.04 0.03 0.03 0.02 0.01 0.01 0.02 0.02 0.03 0.04 0.05 0.04 0.04 0.03 0.04 0.04 0.06 0.08 0.12 0.12 0.09 0.06 0.08 0.11 0.11 0.11 0.09 0.07
0.08 0.07 0.05 0.02 0.01 0.01 0.02 0.02 0.02 0.06 0.04 0.04 0.03 0.04 0.05 0.04 0.02 0.02 0.02 0.02 0.02 0.02 0.02 0.03 0.03 0.04 0.04 0.03 0.03 0.04 0.05 0.07 0.09 0.12 0.11 0.08 0.08 0.12 0.11 0.11 0.14 0.14 0.12
0.16 0.14 0.07 0.04 0.01 0.02 0.03 0.04 0.09 0.09 0.04 0.04 0.03 0.03 0.06 0.04 0.02 0.01 0.02 0.02 0.02 0.01 0.01 0.02 0.03 0.04 0.03 0.03 0.04 0.08 0.12 0.09 0.09 0.13 0.14 0.09 0.07 0.09 0.08 0.09 0.14 0.16 0.19
0.16 0.14 0.07 0.04 0.02 0.02 0.02 0.04 0.08 0.06 0.05 0.05 0.05 0.05 0.08 0.05 0.01 0.01 0.01 0.01 0.02 0.02 0.01 0.02 0.03 0.03 0.02 0.03 0.04 0.07 0.10 0.10 0.14 0.15 0.10 0.07 0.05 0.04 0.05 0.07 0.10 0.13 0.18
0.12 0.06 0.03 0.02 0.02 0.02 0.02 0.04 0.05 0.05 0.05 0.04 0.05 0.07 0.09 0.06 0.04 0.03 0.02 0.01 0.02 0.01 0.01 0.02 0.02 0.03 0.03 0.02 0.03 0.06 0.06 0.08 0.11 0.11 0.08 0.06 0.04 0.04 0.05 0.06 0.05 0.07 0.10
0.01 0.01 0.01 0.01 0.01 0.01 0.01 0.03 0.04 0.04 0.05 0.05 0.05 0.08 0.16 0.11 0.07 0.06 0.06 0.05 0.04 0.02 0.02 0.01 0.02 0.04 0.03 0.03 0.02 0.03 0.04 0.07 0.08 0.08 0.08 0.07 0.06 0.06 0.08 0.07 0.06 0.05 0.06
0.00 0.00 0.00 0.02 0.04 0.04 0.02 0.02 0.02 0.03 0.04 0.04 0.04 0.08 0.19 0.14 0.05 0.03 0.02 0.04 0.05 0.03 0.01 0.01 0.01 0.02 0.03 0.04 0.04 0.04 0.05 0.06 0.05 0.06 0.07 0.06 0.08 0.08 0.10 0.10 0.07 0.05 0.06
0.00 0.01 0.02 0.03 0.07 0.09 0.04 0.01 0.01 0.01 0.02 0.02 0.03 0.06 0.13 0.12 0.07 0.03 0.03 0.03 0.04 0.03 0.03 0.03 0.03 0.03 0.02 0.02 0.03 0.04 0.05 0.05 0.04 0.05 0.04 0.04 0.03 0.05 0.09 0.09 0.08 0.07 0.07
0.01 0.02 0.03 0.05 0.08 0.08 0.04 0.02 0.02 0.02 0.03 0.04 0.03 0.04 0.05 0.07 0.07 0.04 0.03 0.03 0.05 0.05 0.04 0.03 0.03 0.03 0.02 0.02 0.03 0.03 0.03 0.03 0.03 0.03 0.03 0.03 0.03 0.04 0.06 0.07 0.07 0.07 0.07
0.02 0.03 0.05 0.06 0.06 0.06 0.04 0.03 0.04 0.04 0.04 0.03 0.03 0.03 0.03 0.03 0.03 0.03 0.03 0.03 0.03 0.03 0.04 0.03 0.03 0.02 0.02 0.02 0.02 0.04 0.04 0.03 0.03 0.03 0.03 0.04 0.03 0.04 0.05 0.06 0.06 0.06 0.07
MSLP
1005.57 1004.43 1003.46 1002.66 1001.98 1001.40 1000.93 1000.54 1000.18 999.78 999.17 998.12 996.44 993.96 990.65 986.64 982.27 978.02 974.48 972.20 971.53 972.63 975.37 979.36 984.05 988.82 993.12 996.56 999.02 1000.56 1001.41 1001.89 1002.29 1002.84 1003.60 1004.54 1005.55 1006.48 1007.21 1007.72 1008.01 1008.20 1008.37
1005.61 1004.48 1003.50 1002.65 1001.92 1001.30 1000.78 1000.37 1000.02 999.59 998.92 997.73 995.81 992.97 989.19 984.64 979.70 974.89 970.91 968.33 967.56 968.76 971.78 976.20 981.42 986.74 991.56 995.45 998.26 1000.03 1001.03 1001.59 1002.02 1002.58 1003.36 1004.32 1005.35 1006.30 1007.05 1007.56 1007.86 1008.02 1008.18
1005.60 1004.52 1003.54 1002.68 1001.91 1001.25 1000.71 1000.28 999.92 999.50 998.81 997.59 995.58 992.60 988.62 983.82 978.61 973.56 969.36 966.63 965.80 967.02 970.13 974.72 980.13 985.68 990.70 994.78 997.72 999.62 1000.70 1001.32 1001.80 1002.39 1003.19 1004.18 1005.22 1006.18 1006.94 1007.45 1007.74 1007.90 1008.07
1005.56 1004.56 1003.63 1002.77 1001.99 1001.30 1000.72 1000.28 999.92 999.52 998.88 997.72 995.80 992.92 989.04 984.35 979.24 974.27 970.14 967.43 966.58 967.75 970.77 975.23 980.49 985.88 990.76 994.72 997.59 999.44 1000.52 1001.16 1001.68 1002.31 1003.15 1004.15 1005.20 1006.15 1006.90 1007.39 1007.68 1007.85 1008.04
1005.58 1004.68 1003.80 1002.97 1002.18 1001.46 1000.84 1000.36 999.99 999.62 999.08 998.09 996.42 993.86 990.38 986.13 981.46 976.90 973.09 970.59 969.80 970.85 973.60 977.66 982.46 987.35 991.76 995.33 997.90 999.56 1000.54 1001.16 1001.70 1002.38 1003.24 1004.26 1005.30 1006.23 1006.94 1007.41 1007.69 1007.87 1008.09
1005.75 1004.93 1004.13 1003.32 1002.52 1001.76 1001.08 1000.54 1000.13 999.79 999.35 998.60 997.28 995.22 992.35 988.79 984.84 980.95 977.68 975.53 974.85 975.75 978.12 981.60 985.68 989.82 993.52 996.48 998.60 999.95 1000.77 1001.33 1001.88 1002.58 1003.47 1004.49 1005.50 1006.38 1007.04 1007.48 1007.74 1007.94 1008.19
1006.10 1005.38 1004.63 1003.85 1003.03 1002.20 1001.44 1000.81 1000.33 999.98 999.65 999.12 998.20 996.71 994.57 991.85 988.78 985.71 983.12 981.41 980.88 981.62 983.53 986.32 989.56 992.82 995.68 997.93 999.51 1000.51 1001.13 1001.62 1002.16 1002.89 1003.79 1004.78 1005.75 1006.57 1007.17 1007.56 1007.80 1008.01 1008.29
1006.66 1006.00 1005.31 1004.54 1003.69 1002.80 1001.94 1001.19 1000.61 1000.21 999.92 999.59 999.03 998.09 996.66 994.79 992.62 990.41 988.52 987.29 986.92 987.50 988.96 991.05 993.44 995.81 997.84 999.39 1000.44 1001.10 1001.54 1001.96 1002.50 1003.23 1004.12 1005.08 1005.98 1006.73 1007.26 1007.60 1007.83 1008.05 1008.37
1007.38 1006.78 1006.12 1005.36 1004.49 1003.53 1002.57 1001.70 1000.99 1000.50 1000.20 999.97 999.68 999.18 998.36 997.22 995.84 994.40 993.16 992.35 992.14 992.59 993.64 995.10 996.74 998.32 999.64 1000.60 1001.22 1001.61 1001.92 1002.29 1002.82 1003.56 1004.42 1005.32 1006.14 1006.80 1007.27 1007.57 1007.80 1008.04 1008.40
1008.17 1007.61 1006.99 1006.24 1005.36 1004.36 1003.32 1002.34 1001.52 1000.92 1000.54 1000.34 1000.19 999.97 999.58 998.98 998.21 997.38 996.65 996.18 996.09 996.43 997.14 998.11 999.16 1000.14 1000.91 1001.44 1001.77 1001.99 1002.22 1002.58 1003.12 1003.83 1004.65 1005.47 1006.20 1006.78 1007.19 1007.47 1007.70 1007.99 1008.39
1008.94 1008.42 1007.83 1007.12 1006.26 1005.25 1004.18 1003.14 1002.22 1001.51 1001.04 1000.78 1000.66 1000.56 1000.41 1000.14 999.76 999.33 998.94 998.70 998.69 998.94 999.41 1000.03 1000.67 1001.24 1001.67 1001.95 1002.12 1002.28 1002.50 1002.86 1003.39 1004.06 1004.81 1005.53 1006.17 1006.67 1007.03 1007.31 1007.58 1007.92 1008.38
1009.60 1009.12 1008.59 1007.93 1007.12 1006.16 1005.11 1004.06 1003.10 1002.32 1001.76 1001.42 1001.23 1001.13 1001.04 1000.91 1000.72 1000.48 1000.28 1000.16 1000.18 1000.36 1000.68 1001.08 1001.48 1001.84 1002.10 1002.28 1002.41 1002.57 1002.81 1003.18 1003.68 1004.29 1004.94 1005.55 1006.09 1006.52 1006.86 1007.16 1007.48 1007.89 1008.40
1010.14 1009.70 1009.23 1008.64 1007.90 1007.04 1006.07 1005.08 1004.15 1003.35 1002.73 1002.30 1002.01 1001.83 1001.69 1001.55 1001.38 1001.21 1001.06 1000.98 1001.00 1001.13 1001.36 1001.64 1001.94 1002.22 1002.44 1002.62 1002.78 1002.98 1003.25 1003.60 1004.05 1004.57 1005.09 1005.59 1006.03 1006.40 1006.74 1007.07 1007.46 1007.93 1008.50
1010.57 1010.18 1009.74 1009.22 1008.59 1007.84 1007.00 1006.14 1005.29 1004.54 1003.91 1003.41 1003.04 1002.75 1002.51 1002.28 1002.06 1001.85 1001.68 1001.58 1001.58 1001.68 1001.86 1002.11 1002.39 1002.66 1002.91 1003.13 1003.35 1003.59 1003.86 1004.18 1004.55 1004.94 1005.33 1005.70 1006.05 1006.38 1006.72 1007.09 1007.54 1008.07 1008.68
1010.95 1010.57 1010.17 1009.71 1009.17 1008.54 1007.86 1007.14 1006.43 1005.77 1005.18 1004.68 1004.25 1003.87 1003.52 1003.20 1002.90 1002.63 1002.41 1002.28 1002.26 1002.33 1002.50 1002.75 1003.04 1003.33 1003.62 1003.90 1004.15 1004.40 1004.65 1004.90 1005.16 1005.42 1005.68 1005.93 1006.20 1006.49 1006.83 1007.24 1007.73 1008.30 1008.93
1011.34 1010.96 1010.55 1010.12 1009.64 1009.13 1008.58 1008.02 1007.47 1006.93 1006.43 1005.96 1005.51 1005.09 1004.68 1004.29 1003.92 1003.60 1003.36 1003.21 1003.17 1003.24 1003.41 1003.65 1003.94 1004.26 1004.57 1004.86 1005.12 1005.35 1005.54 1005.71 1005.86 1006.00 1006.14 1006.29 1006.48 1006.74 1007.08 1007.51 1008.03 1008.62 1009.23
1011.79 1011.37 1010.94 1010.49 1010.05 1009.61 1009.18 1008.75 1008.34 1007.93 1007.52 1007.10 1006.68 1006.25 1005.82 1005.41 1005.02 1004.70 1004.45 1004.30 1004.27 1004.34 1004.50 1004.73 1005.01 1005.32 1005.61 1005.88 1006.12 1006.30 1006.44 1006.53 1006.58 1006.62 1006.66 1006.74 1006.88 1007.10 1007.43 1007.87 1008.38 1008.95 1009.53
1012.32 1011.84 1011.35 1010.87 1010.42 1010.02 1009.66 1009.34 1009.03 1008.72 1008.40 1008.04 1007.66 1007.24 1006.82 1006.41 1006.05 1005.74 1005.53 1005.40 1005.38 1005.46 1005.60 1005.81 1006.06 1006.32 1006.57 1006.80 1006.99 1007.13 1007.22 1007.26 1007.25 1007.23 1007.21 1007.24 1007.34 1007.54 1007.85 1008.25 1008.74 1009.26 1009.79
1012.91 1012.37 1011.81 1011.28 1010.80 1010.41 1010.09 1009.82 1009.59 1009.35 1009.08 1008.76 1008.40 1008.01 1007.61 1007.22 1006.89 1006.62 1006.45 1006.36 1006.36 1006.43 1006.55 1006.72 1006.91 1007.11 1007.31 1007.49 1007.64 1007.76 1007.82 1007.84 1007.82 1007.78 1007.75 1007.76 1007.83 1008.00 1008.26 1008.62 1009.06 1009.52 1009.97
1013.52 1012.93 1012.31 1011.73 1011.22 1010.83 1010.52 1010.30 1010.10 1009.90 1009.65 1009.35 1008.99 1008.60 1008.20 1007.84 1007.53 1007.30 1007.16 1007.10 1007.11 1007.16 1007.26 1007.37 1007.49 1007.62 1007.76 1007.90 1008.03 1008.14 1008.22 1008.27 1008.28 1008.26 1008.24 1008.24 1008.30 1008.43 1008.64 1008.94 1009.30 1009.68 1010.07
1014.09 1013.47 1012.83 1012.22 1011.71 1011.32 1011.04 1010.83 1010.66 1010.47 1010.22 1009.91 1009.54 1009.13 1008.72 1008.35 1008.05 1007.84 1007.71 1007.66 1007.66 1007.68 1007.73 1007.78 1007.84 1007.90 1007.99 1008.10 1008.23 1008.36 1008.48 1008.57 1008.63 1008.66 1008.67 1008.68 1008.72 1008.80 1008.96 1009.18 1009.45 1009.76 1010.08
1014.59 1013.98 1013.34 1012.75 1012.26 1011.90 1011.66 1011.48 1011.33 1011.15 1010.90 1010.56 1010.16 1009.72 1009.28 1008.89 1008.57 1008.35 1008.21 1008.14 1008.11 1008.09 1008.08 1008.06 1008.05 1008.06 1008.11 1008.20 1008.33 1008.49 1008.66 1008.82 1008.94 1009.01 1009.04 1009.06 1009.07 1009.11 1009.19 1009.33 1009.52 1009.75 1010.01
1014.98 1014.42 1013.84 1013.30 1012.87 1012.56 1012.38 1012.25 1012.14 1011.97 1011.72 1011.38 1010.94 1010.47 1009.99 1009.57 1009.22 1008.96 1008.79 1008.68 1008.60 1008.54 1008.46 1008.37 1008.30 1008.25 1008.26 1008.33 1008.47 1008.65 1008.86 1009.06 1009.22 1009.33 1009.38 1009.38 1009.36 1009.34 1009.35 1009.40 1009.52 1009.68 1009.88
1015.28 1014.79 1014.28 1013.82 1013.48 1013.25 1013.14 1013.07 1013.01 1012.88 1012.66 1012.31 1011.87 1011.38 1010.88 1010.43 1010.04 1009.75 1009.54 1009.38 1009.25 1009.12 1008.98 1008.83 1008.69 1008.59 1008.56 1008.61 1008.73 1008.92 1009.14 1009.36 1009.53 1009.64 1009.68 1009.66 1009.59 1009.51 1009.45 1009.43 1009.47 1009.57 1009.72
1015.49 1015.09 1014.66 1014.30 1014.03 1013.89 1013.84 1013.85 1013.85 1013.77 1013.58 1013.27 1012.85 1012.37 1011.87 1011.40 1011.01 1010.69 1010.44 1010.25 1010.06 1009.88 1009.68 1009.47 1009.28 1009.12 1009.05 1009.06 1009.15 1009.31 1009.51 1009.70 1009.86 1009.94 1009.95 1009.89 1009.78 1009.65 1009.53 1009.45 1009.43 1009.48 1009.57
1015.65 1015.33 1014.98 1014.68 1014.49 1014.40 1014.42 1014.48 1014.53 1014.50 1014.37 1014.10 1013.73 1013.29 1012.82 1012.38 1011.99 1011.67 1011.41 1011.18 1010.97 1010.74 1010.50 1010.25 1010.01 1009.81 1009.69 1009.65 1009.69 1009.80 1009.95 1010.09 1010.20 1010.24 1010.20 1010.09 1009.94 1009.78 1009.62 1009.50 1009.44 1009.43 1009.47
Thickness
5792 5795 5796 5796 5796 5796 5796 5795 5794 5794 5793 5793 5791 5790 5789 5788 5788 5787 5786 5786 5785 5783 5781 5781 5780 5779 5778 5777 5776 5774 5773 5772 5770 5769 5767 5766 5765 5763 5762 5761 5760 5759 5759
5797 5797 5796 5797 5796 5796 5795 5795 5794 5794 5793 5792 5791 5790 5789 5788 5787 5787 5787 5786 5785 5784 5782 5781 5780 5779 5777 5776 5775 5773 5772 5771 5770 5768 5767 5766 5764 5763 5762 5761 5760 5759 5758
5798 5798 5797 5797 5797 5796 5795 5795 5794 5793 5793 5792 5791 5789 5789 5788 5787 5786 5786 5786 5785 5784 5782 5781 5779 5778 5777 5775 5774 5773 5772 5771 5769 5768 5766 5765 5764 5763 5762 5761 5760 5759 5758
5799 5798 5798 5797 5796 5796 5795 5794 5793 5793 5792 5791 5790 5789 5788 5787 5786 5785 5785 5785 5785 5784 5782 5780 5779 5777 5776 5775 5774 5773 5771 5770 5768 5767 5766 5764 5763 5762 5762 5761 5760 5759 5758
5799 5798 5797 5797 5796 5795 5794 5793 5793 5792 5792 5791 5789 5788 5788 5787 5786 5784 5784 5784 5783 5782 5781 5780 5779 5777 5776 5775 5774 5772 5771 5769 5768 5767 5766 5764 5763 5762 5761 5761 5760 5759 5758
5799 5798 5797 5796 5795 5795 5794 5793 5792 5791 5790 5789 5788 5788 5787 5786 5785 5784 5783 5782 5782 5781 5780 5780 5779 5777 5776 5775 5774 5772 5771 5769 5768 5767 5765 5764 5763 5762 5761 5760 5760 5759 5758
5799 5798 5797 5796 5795 5794 5793 5792 5791 5790 5789 5789 5788 5787 5786 5785 5784 5783 5782 5782 5781 5780 5780 5779 5778 5777 5776 5775 5774 5773 5771 5769 5768 5766 5765 5764 5763 5762 5761 5761 5760 5759 5758
5801 5799 5797 5795 5795 5794 5793 5792 5791 5790 5789 5788 5787 5786 5785 5785 5784 5783 5782 5782 5781 5780 5779 5778 5778 5777 5776 5775 5774 5773 5771 5770 5768 5766 5765 5764 5763 5763 5762 5761 5760 5759 5758
5801 5798 5796 5795 5794 5793 5793 5792 5790 5789 5788 5788 5787 5786 5785 5784 5784 5783 5782 5781 5780 5779 5778 5778 5777 5777 5776 5774 5774 5773 5771 5769 5768 5766 5764 5763 5763 5762 5761 5760 5759 5758 5757
5800 5798 5797 5795 5794 5793 5792 5791 5790 5789 5788 5787 5786 5785 5784 5783 5783 5782 5782 5781 5780 5778 5778 5777 5777 5776 5775 5774 5773 5772 5771 5769 5767 5765 5764 5763 5762 5762 5760 5759 5759 5758 5757
5798 5797 5797 5795 5794 5793 5792 5791 5790 5789 5788 5786 5785 5784 5783 5782 5782 5781 5781 5780 5779 5778 5778 5777 5776 5775 5775 5774 5773 5772 5770 5768 5766 5765 5764 5763 5762 5761 5761 5760 5758 5757 5757
5794 5796 5796 5795 5794 5793 5792 5791 5789 5788 5787 5786 5785 5784 5783 5782 5781 5781 5781 5780 5779 5778 5778 5777 5777 5775 5775 5774 5773 5772 5770 5768 5766 5765 5764 5763 5762 5761 5760 5759 5758 5757 5756
5797 5797 5797 5796 5795 5793 5791 5790 5788 5787 5786 5785 5784 5783 5782 5781 5780 5780 5780 5779 5778 5778 5777 5776 5776 5775 5774 5773 5772 5771 5769 5768 5767 5765 5764 5763 5762 5761 5760 5759 5758 5757 5756
5798 5797 5798 5797 5795 5793 5792 5790 5788 5787 5785 5784 5784 5783 5782 5780 5780 5779 5778 5778 5777 5777 5776 5775 5774 5774 5773 5773 5772 5771 5769 5768 5767 5765 5764 5763 5762 5761 5760 5759 5758 5757 5756
5798 5798 5798 5798 5796 5794 5791 5789 5787 5786 5785 5784 5784 5783 5782 5780 5779 5779 5778 5777 5776 5776 5776 5775 5774 5774 5773 5772 5771 5770 5769 5768 5767 5765 5764 5763 5762 5761 5760 5759 5758 5757 5756
5798 5797 5798 5797 5796 5794 5791 5788 5787 5786 5785 5784 5783 5783 5782 5781 5780 5778 5777 5776 5775 5775 5775 5774 5774 5773 5772 5771 5771 5770 5769 5768 5766 5765 5764 5763 5762 5761 5761 5759 5758 5757 5756
5799 5798 5797 5796 5795 5793 5790 5788 5787 5785 5784 5783 5782 5782 5781 5781 5780 5778 5777 5775 5775 5775 5774 5773 5773 5772 5771 5770 5769 5769 5769 5768 5766 5765 5763 5762 5762 5761 5760 5759 5758 5757 5756
5801 5799 5798 5797 5794 5792 5790 5788 5785 5784 5783 5782 5781 5781 5780 5779 5778 5777 5775 5774 5774 5774 5773 5772 5770 5769 5768 5767 5766 5767 5767 5767 5766 5765 5763 5762 5760 5760 5759 5758 5757 5756 5755
5804 5800 5797 5796 5793 5790 5789 5787 5785 5783 5782 5781 5780 5780 5779 5778 5777 5775 5774 5773 5773 5772 5771 5771 5769 5767 5765 5764 5765 5765 5765 5764 5764 5764 5762 5761 5759 5758 5758 5757 5756 5755 5754
5805 5802 5798 5795 5792 5790 5788 5785 5782 5781 5780 5780 5779 5778 5777 5777 5776 5774 5773 5772 5772 5770 5769 5768 5766 5766 5764 5763 5763 5762 5762 5762 5762 5761 5760 5760 5758 5757 5756 5756 5755 5754 5753
5803 5800 5797 5794 5791 5788 5784 5781 5778 5776 5776 5776 5777 5777 5776 5775 5774 5773 5771 5770 5769 5767 5766 5766 5764 5762 5761 5761 5757 5754 5756 5758 5758 5759 5758 5758 5757 5756 5755 5755 5754 5753 5752
5801 5798 5796 5793 5790 5787 5785 5782 5780 5777 5775 5775 5775 5775 5774 5773 5773 5771 5769 5767 5766 5765 5763 5763 5761 5758 5757 5758 5752 5747 5743 5746 5752 5756 5755 5755 5754 5754 5753 5754 5752 5751 5751
5800 5798 5796 5792 5788 5786 5784 5781 5778 5775 5773 5771 5771 5771 5771 5771 5770 5769 5767 5765 5764 5762 5760 5759 5758 5756 5752 5753 5753 5747 5738 5735 5741 5748 5751 5751 5751 5750 5751 5752 5751 5749 5748
5801 5799 5795 5791 5788 5785 5782 5778 5774 5769 5766 5766 5767 5768 5768 5768 5767 5766 5765 5763 5761 5760 5758 5757 5757 5755 5752 5748 5749 5749 5746 5743 5737 5736 5743 5746 5748 5748 5748 5749 5749 5748 5747
5802 5798 5794 5790 5787 5784 5781 5778 5773 5769 5767 5766 5766 5765 5764 5764 5764 5763 5762 5760 5758 5757 5756 5755 5754 5752 5750 5747 5744 5744 5743 5741 5740 5734 5732 5737 5741 5744 5745 5746 5746 5746 5745
5800 5796 5792 5787 5784 5782 5779 5776 5773 5769 5766 5763 5761 5760 5759 5759 5759 5759 5758 5757 5755 5754 5752 5751 5750 5749 5747 5745 5743 5741 5738 5735 5733 5732 5729 5730 5732 5737 5741 5742 5742 5742 5742